[[{"header":{"parameterUnit":"m.s-1","parameterCategory":1,"la1":30.2991,"la2":30.254,"lo1":-89.0895,"lo2":-89.0444,"dy":0.0017,"dx":0.0017,"nx":28,"ny":28,"refTime":"2024-07-31T21:00:00:Z","depth":0,"parameterNumber":2,"parameterNumberName":"U-component_of_WINDS"},"data":[0,0,0,0,0,0,0,0,0,0,0,0,0,0,0,0,0,0,0,0,0,0,0,0,0,0,0,0,0,0,0,0,0,0,0,0,0,0,0,0,0,0,0,0,0,0,0,0,0,0,0,0,0,0,0,0,0,0,1.6135,1.6137,0,1.6301,1.6302,1.6304,1.6369,1.6368,1.6368,1.6367,1.6536,1.6541,1.6546,0,0,0,0,0,0,0,0,0,0,0,0,0,1.5874,1.5879,1.6135,1.6137,1.6139,1.63,1.6303,1.6305,1.6369,1.6368,1.6368,1.6367,1.6535,1.6541,1.6546,0,0,0,0,0,0,0,0,0,0,0,0,0,1.6008,1.588,1.6135,1.6191,1.6197,1.63,1.6303,1.6305,1.6369,1.6368,1.6368,1.6367,1.6533,1.654,1.6547,1.6606,0,0,1.657,1.6573,0,0,0,0,0,0,0,0,1.6001,1.6018,1.618,1.6187,1.6195,1.6313,1.6273,1.6406,1.6369,1.6304,1.6367,1.6367,1.6463,1.6476,1.6508,1.6614,1.6621,1.657,1.6575,1.6578,1.658,0,0,0,0,0,0,0,1.5991,1.6011,1.6201,1.6183,1.6191,1.6207,1.6226,1.6298,1.6385,1.6309,1.6314,1.6333,1.6466,1.6501,1.6513,1.6624,1.657,1.6577,1.6581,1.6584,1.6786,1.6787,0,0,0,0,0,0,1.5973,1.6003,1.6195,1.6206,1.6094,1.6212,1.6233,1.6276,1.6384,1.64,1.6334,1.6336,1.6489,1.6504,1.6519,1.6595,1.6578,1.6585,1.6589,1.6785,1.6787,1.6788,0,0,0,0,0,0,1.5967,1.5989,1.6189,1.6106,1.6132,1.6218,1.6265,1.628,1.6314,1.6403,1.6418,1.6353,1.6489,1.6508,1.6584,1.6602,1.6588,1.6595,1.6784,1.6786,1.6787,1.6747,0,0,0,0,0,0,1.5959,1.5987,1.601,1.6106,1.6136,1.6251,1.6267,1.6283,1.6327,1.6331,1.6425,1.644,1.649,1.6573,1.6591,1.6612,1.6601,1.6783,1.6785,1.6787,1.6747,1.6747,1.6747,0,0,0,0,0,1.595,1.5993,1.6011,1.6034,1.6168,1.6252,1.627,1.6326,1.6328,1.6352,1.6409,1.6437,1.6597,1.658,1.6601,1.6624,1.6782,1.6784,1.6786,1.6748,1.6747,1.6747,0,0,0,0,0,0,1.5897,1.6006,1.6028,1.6103,1.6168,1.6263,1.6295,1.6324,1.6389,1.6391,1.6458,1.6479,1.6548,1.6594,1.6573,1.6687,1.6691,1.6698,1.6654,1.6655,1.6655,1.6642,1.6607,0,0,0,0,0,1.5894,1.5953,1.6046,1.6103,1.6134,1.6209,1.6248,1.6286,1.6355,1.6383,1.6445,1.6512,1.6577,1.6619,1.6684,1.6754,1.6776,1.6781,1.678,1.678,1.6785,1.6825,1.6828,1.6795,1.6795,1.6794,0,0,1.5888,1.5956,1.5989,1.6094,1.6149,1.6209,1.6232,1.6294,1.6339,1.6393,1.6468,1.6516,1.6594,1.6667,1.6703,1.6708,1.6799,1.6782,1.6781,1.6787,1.6827,1.6831,1.6833,1.6796,1.6796,1.6795,0,0,1.5909,1.5966,1.602,1.6074,1.6157,1.6206,1.6219,1.6309,1.6343,1.642,1.6461,1.6515,1.6626,1.6681,1.6723,1.6763,1.6792,1.6783,1.6781,1.682,1.6823,1.6825,1.684,1.6844,1.6787,1.6787,1.6787,0,1.5892,1.5984,1.6044,1.6104,1.6149,1.62,1.6255,1.6305,1.6404,1.6434,1.6438,1.6578,1.6634,1.6721,1.673,1.6763,1.6779,1.6772,1.6818,1.6821,1.6824,1.6839,1.6844,1.6785,1.6786,1.6786,1.6786,0,1.5959,1.6022,1.6056,1.615,1.6199,1.6256,1.6324,1.6366,1.64,1.6448,1.6525,1.6595,1.6674,1.6698,1.6731,1.6789,1.6789,1.6804,1.6811,1.6825,1.6839,1.6845,1.6783,1.6784,1.6784,1.6785,0,0,1.5951,1.6078,1.6089,1.6132,1.6227,1.6277,1.6336,1.6414,1.6449,1.6515,1.6567,1.6659,1.6674,1.6721,1.6761,1.6795,1.6822,1.6806,1.6809,1.6807,1.689,1.6878,1.6883,1.6842,1.6843,1.6844,1.6883,0,1.5984,1.6092,1.6148,1.6233,1.6292,1.6341,1.6393,1.6456,1.6503,1.656,1.6612,1.6676,1.669,1.6719,1.6755,1.6811,1.684,1.6809,1.689,1.6892,1.6868,1.6891,1.6878,1.6912,1.6889,1.689,1.6891,0,1.6037,1.6103,1.6193,1.6281,1.6308,1.6353,1.6429,1.6483,1.6556,1.6587,1.664,1.6679,1.6743,1.6745,1.6834,1.6812,1.6848,1.688,1.6883,1.6893,1.6892,1.6901,1.6924,1.6929,1.6901,1.69,1.6899,0,1.6021,1.6133,1.6202,1.6237,1.6341,1.6372,1.6417,1.6489,1.6532,1.6598,1.6627,1.6699,1.6739,1.6794,1.6852,1.6848,1.6935,1.6941,1.6963,1.6962,1.6979,1.6977,1.7008,1.7003,1.7003,1.7003,1.7002,0,1.6052,1.6105,1.6196,1.6238,1.6299,1.6362,1.6421,1.6469,1.6533,1.6585,1.6633,1.668,1.6754,1.6811,1.6856,1.6923,1.694,1.6968,1.6979,1.6964,1.696,1.6988,1.6987,1.7004,1.7004,1.7003,1.7003,0,1.6045,1.6108,1.6186,1.6278,1.6302,1.6343,1.6422,1.6464,1.6514,1.6579,1.6598,1.6675,1.6745,1.6808,1.69,1.6931,1.6998,1.7013,1.6974,1.698,1.6998,1.6995,1.7048,1.7058,1.7045,1.7045,1.7045,0,1.606,1.6102,1.6199,1.6237,1.6281,1.6343,1.6387,1.6451,1.6495,1.6581,1.6613,1.6686,1.6748,1.6856,1.6921,1.6991,1.7008,1.7021,1.7019,1.7001,1.7008,1.7004,1.7009,1.7021,1.702,1.702,1.702,0,1.6081,1.611,1.6172,1.6245,1.6297,1.6358,1.642,1.6449,1.6524,1.6571,1.6643,1.669,1.6785,1.6856,1.6934,1.698,1.7013,1.702,1.7029,1.7014,1.6989,1.7002,1.6972,1.7019,1.7019,1.7019,1.7019,1.7019,1.6085,1.6125,1.6199,1.6267,1.6321,1.6377,1.6422,1.6477,1.6538,1.6619,1.6653,1.6726,1.6797,1.6905,1.6951,1.7009,1.7015,1.7028,1.7031,1.7033,1.703,1.698,1.7023,1.7023,1.7023,1.7023,1.7024,0,1.6108,1.6158,1.622,1.6305,1.6359,1.6385,1.6455,1.6497,1.6561,1.6625,1.6685,1.6767,1.6837,1.6906,1.698,1.7012,1.7029,1.7029,1.7028,1.7038,1.702,1.7005,1.7015,1.7015,1.7015,1.7015,1.7015,1.7015,1.6126,1.6195,1.6232,1.6328,1.6378,1.6449,1.6487,1.654,1.6591,1.6681,1.6739,1.6784,1.685,1.6929,1.6994,1.7013,1.7037,1.7034,1.7056,1.7039,1.7039,1.7039,1.7025,1.7039,1.7039,1.7069,1.7069,1.7069]},{"header":{"parameterUnit":"m.s-1","parameterCategory":1,"la1":30.2991,"la2":30.254,"lo1":-89.0895,"lo2":-89.0444,"dy":0.0017,"dx":0.0017,"nx":28,"ny":28,"refTime":"2024-07-31T21:00:00:Z","depth":0,"parameterNumber":3,"parameterNumberName":"V-component_of_WINDS"},"data":[0,0,0,0,0,0,0,0,0,0,0,0,0,0,0,0,0,0,0,0,0,0,0,0,0,0,0,0,0,0,0,0,0,0,0,0,0,0,0,0,0,0,0,0,0,0,0,0,0,0,0,0,0,0,0,0,0,0,3.0291,3.0291,0,3.0264,3.0264,3.0264,3.0219,3.0218,3.0217,3.0216,3.019,3.019,3.019,0,0,0,0,0,0,0,0,0,0,0,0,0,3.0304,3.0304,3.0291,3.0291,3.029,3.0265,3.0264,3.0264,3.0219,3.0218,3.0217,3.0216,3.019,3.019,3.019,0,0,0,0,0,0,0,0,0,0,0,0,0,3.029,3.0304,3.0291,3.0265,3.0262,3.0265,3.0264,3.0264,3.0219,3.0218,3.0217,3.0216,3.019,3.019,3.019,3.0216,0,0,3.0191,3.0191,0,0,0,0,0,0,0,0,3.0291,3.0289,3.0269,3.0267,3.0264,3.0244,3.0259,3.0248,3.022,3.0236,3.0216,3.0215,3.0209,3.0207,3.0205,3.0215,3.0214,3.0191,3.0191,3.0191,3.0191,0,0,0,0,0,0,0,3.0292,3.029,3.0281,3.0269,3.0266,3.0255,3.0251,3.0257,3.023,3.0234,3.0231,3.0228,3.0207,3.0205,3.0204,3.0213,3.0191,3.0191,3.0191,3.0191,3.0243,3.0244,0,0,0,0,0,0,3.0296,3.0291,3.0281,3.028,3.0274,3.0256,3.0252,3.0251,3.023,3.0225,3.0229,3.0226,3.0206,3.0204,3.0203,3.0232,3.0191,3.0191,3.0191,3.0241,3.0243,3.0244,0,0,0,0,0,0,3.0297,3.0296,3.0282,3.0285,3.0282,3.0257,3.0257,3.0252,3.0249,3.0226,3.0221,3.0232,3.0205,3.0203,3.0213,3.023,3.0191,3.0191,3.024,3.0242,3.0244,3.029,0,0,0,0,0,0,3.0297,3.0296,3.0306,3.0285,3.0282,3.0293,3.0258,3.0252,3.025,3.0245,3.0227,3.0223,3.0204,3.0213,3.0213,3.023,3.0191,3.0238,3.0241,3.0243,3.0287,3.0293,3.0299,0,0,0,0,0,3.0298,3.032,3.0307,3.0306,3.0293,3.0294,3.0292,3.0269,3.0251,3.0261,3.0245,3.0224,3.0228,3.0215,3.0214,3.0231,3.0237,3.024,3.0243,3.0284,3.0292,3.0298,0,0,0,0,0,0,3.0344,3.0317,3.0302,3.0318,3.0308,3.0286,3.0297,3.0278,3.0274,3.027,3.0242,3.0238,3.0252,3.0242,3.0228,3.0255,3.0229,3.0232,3.0261,3.0268,3.0274,3.0276,3.0191,0,0,0,0,0,3.0356,3.0358,3.0335,3.0351,3.0347,3.0323,3.0323,3.0306,3.0295,3.0291,3.0276,3.0267,3.0266,3.0267,3.0265,3.0285,3.028,3.0296,3.0302,3.0307,3.031,3.032,3.0327,3.0254,3.0254,3.0254,0,0,3.0381,3.0366,3.0369,3.036,3.0351,3.0354,3.032,3.0325,3.0327,3.0292,3.03,3.0289,3.0277,3.0292,3.0298,3.0285,3.0329,3.0311,3.0315,3.0315,3.0324,3.0331,3.0337,3.0256,3.0256,3.0255,0,0,3.0427,3.0417,3.0429,3.0421,3.0407,3.0391,3.0394,3.0375,3.0366,3.0374,3.0347,3.0349,3.0349,3.0341,3.0337,3.0381,3.036,3.0381,3.0412,3.0422,3.0428,3.0433,3.0448,3.0454,3.0384,3.0384,3.0384,0,3.046,3.0464,3.0438,3.0445,3.0441,3.0409,3.0421,3.0414,3.0401,3.0399,3.0384,3.0383,3.0372,3.0385,3.0396,3.0393,3.0396,3.0383,3.0429,3.0434,3.0438,3.0453,3.0459,3.0387,3.0386,3.0386,3.0386,0,3.0504,3.0507,3.0519,3.0507,3.0504,3.0514,3.049,3.0491,3.0474,3.046,3.0468,3.0454,3.0449,3.0451,3.0434,3.0461,3.0453,3.0434,3.0408,3.0448,3.0461,3.0467,3.039,3.0389,3.0389,3.0388,0,0,3.0579,3.0553,3.0557,3.0551,3.0534,3.0535,3.0544,3.0538,3.0539,3.0531,3.0537,3.0537,3.0519,3.0515,3.0497,3.0506,3.0541,3.0486,3.0485,3.0497,3.057,3.0585,3.0592,3.0528,3.0529,3.053,3.0571,0,3.0623,3.0635,3.0612,3.0629,3.0632,3.0601,3.0608,3.0598,3.0584,3.0585,3.057,3.057,3.0547,3.0544,3.0551,3.0536,3.0556,3.0532,3.0533,3.0534,3.0538,3.0598,3.0614,3.0654,3.0576,3.0577,3.0578,0,3.0675,3.0669,3.0687,3.0668,3.0668,3.0675,3.0667,3.0668,3.0656,3.0646,3.0641,3.062,3.0626,3.0601,3.061,3.0594,3.0593,3.0586,3.0587,3.0586,3.0558,3.06,3.0666,3.0672,3.0585,3.0585,3.0584,0,3.0728,3.0724,3.0734,3.073,3.0708,3.0714,3.0705,3.0692,3.069,3.0684,3.0682,3.0677,3.0674,3.0671,3.0649,3.0633,3.0661,3.0633,3.0652,3.0653,3.066,3.066,3.0727,3.0659,3.0659,3.0659,3.0659,0,3.0778,3.079,3.0758,3.0764,3.0777,3.075,3.0764,3.0752,3.074,3.0744,3.0716,3.072,3.0691,3.0692,3.0675,3.0685,3.0684,3.0676,3.0671,3.0678,3.068,3.0678,3.0674,3.066,3.066,3.066,3.0659,0,3.084,3.0818,3.0827,3.0806,3.0801,3.0811,3.0793,3.0798,3.0783,3.0787,3.0787,3.0763,3.0763,3.074,3.0735,3.0724,3.0741,3.0731,3.0745,3.0742,3.0762,3.076,3.0831,3.0839,3.0766,3.0766,3.0767,0,3.0874,3.0882,3.0862,3.0862,3.0854,3.0855,3.0853,3.0827,3.0826,3.0813,3.082,3.0817,3.0813,3.0814,3.0796,3.0792,3.0782,3.0807,3.0781,3.0788,3.0782,3.0782,3.0783,3.0812,3.0813,3.0814,3.0814,0,3.0936,3.0925,3.0923,3.0917,3.0915,3.0909,3.0902,3.0903,3.0875,3.0875,3.0874,3.0871,3.0866,3.0863,3.0856,3.0847,3.0826,3.0823,3.0827,3.0834,3.0842,3.0838,3.076,3.0821,3.0821,3.082,3.082,3.0819,3.0985,3.0991,3.0977,3.0976,3.0967,3.0961,3.0964,3.0949,3.0948,3.0941,3.0926,3.0928,3.0915,3.0903,3.0896,3.0896,3.0884,3.089,3.0891,3.0893,3.0897,3.0842,3.0895,3.0895,3.0895,3.0894,3.0894,0,3.1045,3.1035,3.1034,3.1024,3.1023,3.1003,3.0994,3.0994,3.0996,3.0986,3.0983,3.0981,3.0979,3.0961,3.0956,3.096,3.095,3.096,3.0959,3.0957,3.0909,3.0906,3.0968,3.0968,3.0967,3.0967,3.0967,3.0967,3.1077,3.1086,3.1074,3.1079,3.1068,3.1069,3.1065,3.1059,3.1051,3.1051,3.1049,3.1037,3.1024,3.1018,3.1014,3.1009,3.1009,3.1021,3.1013,3.0968,3.0961,3.0954,3.0951,3.1021,3.1021,3.1061,3.1062,3.1062]}]]